Location: Frydek-Mistek
(49.6830°N, 18.3330°E)
Time: 21:41:08
(UTC+01:00)

Courier 1B Rocket - All Passes

Search period start: 13 December 2017 00:00
Search period end: 23 December 2017 00:00
Orbit: 920 x 1202 km, 28.2° (Epoch: 12 December)

Date Brightness Start Highest point End Pass type
(mag) Time Alt. Az. Time Alt. Az. Time Alt. Az.
13 Dec - 16:22:47 10° S 16:23:51 10° S 16:24:55 10° S visible
14 Dec - 15:22:30 10° S 15:23:16 10° S 15:24:01 10° SSE daylight
15 Dec - 16:13:02 10° SSW 16:14:38 11° S 16:16:14 10° S daylight
16 Dec - 15:11:55 10° SSW 15:14:02 11° S 15:16:08 10° SSE daylight
17 Dec - 14:11:21 10° S 14:13:24 11° S 14:15:25 10° SSE daylight
17 Dec - 16:04:06 10° SSW 16:05:24 11° S 16:06:42 10° S daylight
18 Dec - 13:11:35 10° S 13:12:45 10° S 13:13:55 10° SSE daylight
18 Dec - 15:02:21 10° SSW 15:04:48 12° S 15:07:12 10° SSE daylight
19 Dec - 14:01:18 10° SSW 14:04:09 12° S 14:06:56 10° SSE daylight
20 Dec - 13:00:41 10° SSW 13:03:28 12° S 13:06:12 10° SSE daylight
20 Dec - 14:53:19 10° SSW 14:55:32 11° S 14:57:43 10° S daylight
21 Dec - 12:00:39 10° S 12:02:46 11° SSE 12:04:52 10° SSE daylight
21 Dec - 13:51:49 10° SSW 13:54:52 13° S 13:57:53 10° SSE daylight
22 Dec - 12:50:50 10° SSW 12:54:10 13° S 12:57:28 10° SSE daylight
22 Dec - 14:45:14 10° SSW 14:46:13 10° SSW 14:47:13 10° S daylight
